TimeCST,TemperatureF,Dew PointF,Humidity,Sea Level PressureIn,VisibilityMPH,Wind Direction,Wind SpeedMPH,Gust SpeedMPH,PrecipitationIn,Events,Conditions,WindDirDegrees,DateUTC
12:15 AM,23.0,17.6,80,30.12,10.0,SSW,6.9,-,N/A,,Clear,210,2013-02-12 06:15:00
12:35 AM,24.8,19.4,80,30.12,10.0,SW,3.5,-,N/A,,Clear,220,2013-02-12 06:35:00
12:55 AM,24.8,17.6,74,30.12,10.0,SSW,4.6,-,N/A,,Clear,210,2013-02-12 06:55:00
1:15 AM,24.8,17.6,74,30.11,10.0,SW,3.5,-,N/A,,Clear,230,2013-02-12 07:15:00
1:35 AM,21.2,15.8,80,30.11,10.0,Calm,Calm,-,N/A,,Clear,0,2013-02-12 07:35:00
1:55 AM,17.6,12.2,79,30.10,10.0,NNW,3.5,-,N/A,,Clear,330,2013-02-12 07:55:00
2:15 AM,19.4,12.2,74,30.10,10.0,Calm,Calm,-,N/A,,Clear,0,2013-02-12 08:15:00
2:35 AM,21.2,15.8,80,30.09,10.0,Calm,Calm,-,N/A,,Clear,0,2013-02-12 08:35:00
2:55 AM,17.6,12.2,79,30.08,10.0,Calm,Calm,-,N/A,,Clear,0,2013-02-12 08:55:00
3:15 AM,17.6,12.2,79,30.07,10.0,Calm,Calm,-,N/A,,Clear,0,2013-02-12 09:15:00
3:35 AM,17.6,12.2,79,30.07,10.0,Calm,Calm,-,N/A,,Clear,0,2013-02-12 09:35:00
3:55 AM,19.4,14.0,80,30.07,10.0,Calm,Calm,-,N/A,,Clear,0,2013-02-12 09:55:00
4:15 AM,17.6,12.2,79,30.06,10.0,Calm,Calm,-,N/A,,Clear,0,2013-02-12 10:15:00
4:35 AM,17.6,12.2,79,30.06,10.0,NW,3.5,-,N/A,,Clear,310,2013-02-12 10:35:00
4:55 AM,17.6,12.2,79,30.06,10.0,SSW,3.5,-,N/A,,Clear,200,2013-02-12 10:55:00
5:15 AM,17.6,12.2,79,30.06,10.0,WNW,4.6,-,N/A,,Clear,290,2013-02-12 11:15:00
5:35 AM,21.2,15.8,80,30.06,10.0,WSW,5.8,-,N/A,,Clear,250,2013-02-12 11:35:00
5:55 AM,21.2,17.6,86,30.07,10.0,West,4.6,-,N/A,,Clear,280,2013-02-12 11:55:00
6:15 AM,21.2,15.8,80,30.07,10.0,West,4.6,-,N/A,,Clear,260,2013-02-12 12:15:00
6:35 AM,21.2,15.8,80,30.06,10.0,WNW,9.2,-,N/A,,Clear,290,2013-02-12 12:35:00
6:55 AM,21.2,15.8,80,30.05,10.0,West,8.1,-,N/A,,Clear,280,2013-02-12 12:55:00
7:15 AM,21.2,15.8,80,30.04,10.0,WSW,5.8,-,N/A,,Clear,240,2013-02-12 13:15:00
7:35 AM,21.2,15.8,80,30.04,10.0,South,6.9,-,N/A,,Clear,190,2013-02-12 13:35:00
7:55 AM,24.8,17.6,74,30.02,10.0,WSW,5.8,-,N/A,,Clear,240,2013-02-12 13:55:00
8:15 AM,24.8,17.6,74,30.01,10.0,SW,6.9,-,N/A,,Clear,220,2013-02-12 14:15:00
8:35 AM,26.6,17.6,69,30.01,10.0,WSW,8.1,-,N/A,,Clear,240,2013-02-12 14:35:00
8:55 AM,26.6,17.6,69,30.00,10.0,WSW,8.1,-,N/A,,Clear,250,2013-02-12 14:55:00
9:15 AM,30.2,19.4,64,30.01,10.0,West,9.2,-,N/A,,Clear,260,2013-02-12 15:15:00
9:35 AM,32.0,19.4,60,30.01,10.0,West,8.1,-,N/A,,Clear,260,2013-02-12 15:35:00
9:55 AM,35.6,21.2,56,30.02,10.0,WSW,9.2,-,N/A,,Clear,240,2013-02-12 15:55:00
10:15 AM,35.6,21.2,56,30.02,10.0,WSW,8.1,-,N/A,,Clear,250,2013-02-12 16:15:00
10:35 AM,37.4,23.0,56,30.01,10.0,WSW,11.5,-,N/A,,Clear,250,2013-02-12 16:35:00
10:55 AM,39.2,21.2,49,30.01,10.0,West,12.7,-,N/A,,Clear,260,2013-02-12 16:55:00
11:15 AM,41.0,23.0,49,30.00,10.0,West,10.4,-,N/A,,Clear,270,2013-02-12 17:15:00
11:35 AM,42.8,21.2,42,30.00,10.0,SW,12.7,16.1,N/A,,Clear,230,2013-02-12 17:35:00
11:55 AM,44.6,21.2,39,30.00,10.0,West,12.7,-,N/A,,Clear,260,2013-02-12 17:55:00
12:15 PM,46.4,21.2,37,30.00,10.0,West,10.4,-,N/A,,Clear,260,2013-02-12 18:15:00
12:35 PM,46.4,19.4,34,29.99,10.0,West,10.4,-,N/A,,Clear,260,2013-02-12 18:35:00
12:55 PM,46.4,17.6,32,29.97,10.0,West,13.8,20.7,N/A,,Clear,270,2013-02-12 18:55:00
1:15 PM,48.2,15.8,27,29.96,10.0,West,13.8,-,N/A,,Clear,270,2013-02-12 19:15:00
1:35 PM,48.2,15.8,27,29.95,10.0,WSW,15.0,18.4,N/A,,Clear,250,2013-02-12 19:35:00
1:55 PM,48.2,15.8,27,29.94,10.0,West,15.0,18.4,N/A,,Clear,260,2013-02-12 19:55:00
2:15 PM,48.2,15.8,27,29.93,10.0,WSW,12.7,-,N/A,,Clear,250,2013-02-12 20:15:00
2:35 PM,48.2,12.2,24,29.92,10.0,West,10.4,-,N/A,,Clear,270,2013-02-12 20:35:00
2:55 PM,48.2,12.2,24,29.92,10.0,West,13.8,-,N/A,,Clear,260,2013-02-12 20:55:00
3:15 PM,48.2,12.2,24,29.92,10.0,WNW,13.8,18.4,N/A,,Clear,290,2013-02-12 21:15:00
3:35 PM,48.2,12.2,24,29.92,10.0,WNW,13.8,-,N/A,,Clear,290,2013-02-12 21:35:00
3:55 PM,48.2,12.2,24,29.92,10.0,West,12.7,-,N/A,,Clear,280,2013-02-12 21:55:00
4:15 PM,48.2,12.2,24,29.91,10.0,WNW,13.8,18.4,N/A,,Clear,290,2013-02-12 22:15:00
4:35 PM,46.4,12.2,25,29.91,10.0,WNW,11.5,-,N/A,,Clear,300,2013-02-12 22:35:00
4:55 PM,46.4,10.4,23,29.91,10.0,NW,15.0,-,N/A,,Clear,310,2013-02-12 22:55:00
5:15 PM,44.6,12.2,27,29.91,10.0,NW,12.7,-,N/A,,Clear,310,2013-02-12 23:15:00
5:35 PM,42.8,15.8,34,29.91,10.0,NW,11.5,-,N/A,,Clear,320,2013-02-12 23:35:00
5:55 PM,37.4,15.8,41,29.91,10.0,NW,6.9,-,N/A,,Clear,310,2013-02-12 23:55:00
6:15 PM,37.4,17.6,45,29.92,10.0,WNW,5.8,-,N/A,,Clear,300,2013-02-13 00:15:00
6:35 PM,35.6,17.6,48,29.92,10.0,NW,6.9,-,N/A,,Clear,310,2013-02-13 00:35:00
6:55 PM,33.8,17.6,52,29.92,10.0,NW,5.8,-,N/A,,Clear,320,2013-02-13 00:55:00
7:15 PM,32.0,17.6,55,29.93,10.0,WNW,3.5,-,N/A,,Clear,300,2013-02-13 01:15:00
7:35 PM,32.0,19.4,60,29.93,10.0,West,5.8,-,N/A,,Clear,280,2013-02-13 01:35:00
7:55 PM,33.8,19.4,56,29.93,10.0,West,5.8,-,N/A,,Clear,270,2013-02-13 01:55:00
8:15 PM,33.8,19.4,56,29.92,10.0,West,5.8,-,N/A,,Clear,270,2013-02-13 02:15:00
8:35 PM,32.0,19.4,60,29.92,10.0,West,5.8,-,N/A,,Clear,270,2013-02-13 02:35:00
8:55 PM,33.8,19.4,56,29.92,10.0,West,6.9,-,N/A,,Clear,270,2013-02-13 02:55:00
9:15 PM,32.0,19.4,60,29.92,10.0,West,5.8,-,N/A,,Clear,270,2013-02-13 03:15:00
9:35 PM,32.0,19.4,60,29.91,10.0,West,5.8,-,N/A,,Clear,270,2013-02-13 03:35:00
9:55 PM,30.2,19.4,64,29.92,10.0,West,5.8,-,N/A,,Clear,260,2013-02-13 03:55:00
10:15 PM,32.0,21.2,64,29.91,10.0,West,6.9,-,N/A,,Clear,270,2013-02-13 04:15:00
10:35 PM,30.2,19.4,64,29.91,10.0,WSW,5.8,-,N/A,,Clear,240,2013-02-13 04:35:00
10:55 PM,30.2,19.4,64,29.91,10.0,WSW,5.8,-,N/A,,Clear,250,2013-02-13 04:55:00
11:15 PM,30.2,19.4,64,29.90,10.0,WSW,5.8,-,N/A,,Clear,240,2013-02-13 05:15:00
11:35 PM,28.4,19.4,69,29.90,10.0,WSW,5.8,-,N/A,,Clear,240,2013-02-13 05:35:00
11:55 PM,26.6,17.6,69,29.90,10.0,Calm,Calm,-,N/A,,Clear,0,2013-02-13 05:55:00